Location: Ocean City
(38.3360°N, 75.0850°W)
Time: 15:33:09
(UTC-04:00)

Max Valier Satellite - Pass Details

Date: 21 May 2019
Orbit: 492 x 507 km, 97.4° (Epoch: 17 June)

Event Time Altitude Azimuth Distance (km) Brightness Sun altitude
Exits shadow 21:16:34 17° 110° (ESE) 1,309 ? -11.9°
Maximum altitude 21:18:17 24° 71° (ENE) 1,069 ? -12.1°
Drops below altitude 10° 21:21:17 10° 16° (NNE) 1,713 ? -12.6°
Sets 21:23:39 0° 3° (N) 2,605 ? -13.0°
